HAZ2161 ZSHC-ZLLL

Flight info

Callsign HAZ2161
Flight time 2h 40m
Altitude 36100
Route NIVIK5E NIVIK W135 DOGVI W545 VEMEX W163 HFE B208 MAGLI/K0882S1160 B208 TAMIX W4 LIMGI W152 SHX DCT ZS DCT OLMEK DCT DOVOP W541 OVKAB W94 XFG W213 OVTIB
Aircraft A346/H-SDE2E3FGHIJ3J4J5M1RWXY/LB1D1

Departure

Time 2026-04-25 01:19
Airport Hangzhou Xiaoshan International Airport (ZSHC)

Arrival

Time 2026-04-25 03:59
Airport Lanzhou Zhongchuan International Airport (ZLLL)
Time Latitude Longitude Altitude Speed Heading
2026-04-25 00:54 30.24010 120.42360 38 ft 0 kts 153°
2026-04-25 01:09 30.24016 120.42357 38 ft 2 kts 153°
2026-04-25 01:09 30.24029 120.42349 38 ft 2 kts 153°
2026-04-25 01:09 30.24042 120.42342 38 ft 2 kts 153°
2026-04-25 01:10 30.24056 120.42334 38 ft 2 kts 153°
2026-04-25 01:10 30.24070 120.42327 38 ft 2 kts 172°
2026-04-25 01:10 30.24084 120.42329 38 ft 2 kts 200°
2026-04-25 01:10 30.24097 120.42337 38 ft 2 kts 224°
2026-04-25 01:11 30.24104 120.42347 38 ft 0 kts 242°
2026-04-25 01:11 30.24106 120.42351 38 ft 0 kts 243°
2026-04-25 01:13 30.24098 120.42334 38 ft 4 kts 242°
2026-04-25 01:13 30.24076 120.42288 38 ft 8 kts 242°
2026-04-25 01:13 30.24048 120.42217 38 ft 10 kts 260°
2026-04-25 01:14 30.24082 120.42163 38 ft 6 kts 338°
2026-04-25 01:14 30.24134 120.42134 38 ft 10 kts 334°
2026-04-25 01:14 30.24174 120.42070 38 ft 10 kts 263°
2026-04-25 01:14 30.24139 120.41985 38 ft 12 kts 243°
2026-04-25 01:15 30.24093 120.41878 38 ft 15 kts 242°
2026-04-25 01:15 30.24040 120.41760 38 ft 17 kts 242°
2026-04-25 01:15 30.23984 120.41634 38 ft 18 kts 243°
2026-04-25 01:15 30.23924 120.41499 38 ft 19 kts 243°
2026-04-25 01:16 30.23859 120.41350 38 ft 21 kts 242°
2026-04-25 01:16 30.23788 120.41190 38 ft 22 kts 243°
2026-04-25 01:16 30.23721 120.41039 38 ft 14 kts 243°
2026-04-25 01:16 30.23686 120.40953 38 ft 8 kts 259°
2026-04-25 01:17 30.23708 120.40912 38 ft 6 kts 327°
2026-04-25 01:17 30.23757 120.40880 38 ft 9 kts 333°
2026-04-25 01:17 30.23812 120.40851 38 ft 6 kts 352°
2026-04-25 01:17 30.23837 120.40872 38 ft 5 kts 54°
2026-04-25 01:18 30.23841 120.40879 38 ft 4 kts 62°
2026-04-25 01:18 30.23979 120.41190 38 ft 80 kts 63°
2026-04-25 01:18 30.24342 120.42007 38 ft 144 kts 63°
2026-04-25 01:18 30.24867 120.43205 204 ft 179 kts 63°
2026-04-25 01:19 30.25443 120.44497 823 ft 180 kts 62°
2026-04-25 01:19 30.26032 120.45797 1443 ft 185 kts 62°
2026-04-25 01:19 30.26637 120.47118 2088 ft 189 kts 63°
2026-04-25 01:19 30.27239 120.48493 2773 ft 192 kts 64°
2026-04-25 01:20 30.27843 120.49882 3426 ft 196 kts 64°
2026-04-25 01:20 30.28474 120.51332 3899 ft 209 kts 64°
2026-04-25 01:20 30.29147 120.52868 4507 ft 215 kts 63°
2026-04-25 01:20 30.29822 120.54406 5172 ft 218 kts 63°
2026-04-25 01:21 30.30511 120.55971 5827 ft 221 kts 62°
2026-04-25 01:21 30.31207 120.57552 6484 ft 224 kts 62°
2026-04-25 01:21 30.31919 120.59154 7120 ft 227 kts 62°
2026-04-25 01:21 30.32801 120.60667 7626 ft 229 kts 43°
2026-04-25 01:22 30.34145 120.61594 7873 ft 228 kts 17°
2026-04-25 01:22 30.35714 120.61767 7881 ft 228 kts 352°
2026-04-25 01:22 30.37203 120.61146 7898 ft 229 kts 327°
2026-04-25 01:22 30.38338 120.59821 8149 ft 238 kts 301°
2026-04-25 01:23 30.38868 120.58036 8850 ft 237 kts 276°
2026-04-25 01:23 30.38703 120.56168 9535 ft 237 kts 253°
2026-04-25 01:23 30.38058 120.54416 10147 ft 238 kts 243°
2026-04-25 01:23 30.37273 120.52726 10759 ft 239 kts 242°
2026-04-25 01:24 30.36482 120.51051 11361 ft 240 kts 242°
2026-04-25 01:24 30.35699 120.49356 11942 ft 242 kts 243°
2026-04-25 01:24 30.34912 120.47623 12548 ft 242 kts 243°
2026-04-25 01:24 30.34136 120.45888 13010 ft 249 kts 244°
2026-04-25 01:25 30.33321 120.44049 13254 ft 267 kts 244°
2026-04-25 01:25 30.32450 120.42079 13650 ft 279 kts 244°
2026-04-25 01:25 30.31564 120.40080 14432 ft 278 kts 244°
2026-04-25 01:25 30.30683 120.38084 15163 ft 278 kts 244°
2026-04-25 01:26 30.29790 120.36073 15840 ft 280 kts 244°
2026-04-25 01:26 30.28899 120.34065 16529 ft 281 kts 244°
2026-04-25 01:26 30.28000 120.32041 17191 ft 283 kts 243°
2026-04-25 01:26 30.27312 120.29926 17781 ft 285 kts 263°
2026-04-25 01:27 30.27441 120.27663 18390 ft 287 kts 286°
2026-04-25 01:27 30.28362 120.25603 18904 ft 297 kts 307°
2026-04-25 01:27 30.29990 120.24079 19150 ft 317 kts 329°
2026-04-25 01:28 30.34175 120.21780 19689 ft 346 kts 333°
2026-04-25 01:28 30.36417 120.20655 19949 ft 360 kts 333°
2026-04-25 01:28 30.38756 120.19488 20200 ft 374 kts 333°
2026-04-25 01:28 30.41212 120.18261 20452 ft 388 kts 333°
2026-04-25 01:29 30.43732 120.16997 20694 ft 401 kts 333°
2026-04-25 01:29 30.46309 120.15627 20925 ft 413 kts 330°
2026-04-25 01:29 30.48870 120.14005 21192 ft 423 kts 326°
2026-04-25 01:29 30.51351 120.12142 21666 ft 427 kts 322°
2026-04-25 01:30 30.53742 120.10156 22230 ft 430 kts 321°
2026-04-25 01:30 30.56193 120.08086 22809 ft 433 kts 320°
2026-04-25 01:30 30.58593 120.06045 23338 ft 436 kts 320°
2026-04-25 01:30 30.61071 120.03938 23840 ft 440 kts 321°
2026-04-25 01:31 30.63559 120.01824 24308 ft 445 kts 320°
2026-04-25 01:31 30.66061 119.99703 24809 ft 448 kts 321°
2026-04-25 01:31 30.68580 119.97566 25275 ft 451 kts 320°
2026-04-25 01:31 30.71120 119.95408 25741 ft 454 kts 320°
2026-04-25 01:32 30.73674 119.93232 26191 ft 458 kts 320°
2026-04-25 01:32 30.76230 119.91058 26612 ft 461 kts 320°
2026-04-25 01:32 30.78830 119.88837 27099 ft 464 kts 321°
2026-04-25 01:32 30.81429 119.86608 27482 ft 467 kts 320°
2026-04-25 01:33 30.84077 119.84338 27866 ft 471 kts 320°
2026-04-25 01:33 30.86707 119.82081 28354 ft 472 kts 321°
2026-04-25 01:33 30.89325 119.79833 28967 ft 470 kts 320°
2026-04-25 01:33 30.91943 119.77580 29567 ft 469 kts 320°
2026-04-25 01:34 30.94573 119.75316 30152 ft 468 kts 321°
2026-04-25 01:34 30.97202 119.73050 30637 ft 468 kts 320°
2026-04-25 01:34 30.99847 119.70772 31132 ft 467 kts 320°
2026-04-25 01:34 31.02445 119.68536 31611 ft 465 kts 319°
2026-04-25 01:35 31.05050 119.66293 32086 ft 463 kts 319°
2026-04-25 01:35 31.07636 119.64058 32570 ft 462 kts 319°
2026-04-25 01:35 31.10205 119.61835 32999 ft 460 kts 318°
2026-04-25 01:35 31.12759 119.59623 33451 ft 459 kts 317°
2026-04-25 01:36 31.15295 119.57422 33876 ft 457 kts 317°
2026-04-25 01:36 31.17879 119.55176 34271 ft 457 kts 317°
2026-04-25 01:36 31.20422 119.52965 34565 ft 456 kts 317°
2026-04-25 01:36 31.22981 119.50745 34878 ft 457 kts 317°
2026-04-25 01:37 31.25550 119.48517 35099 ft 458 kts 317°
2026-04-25 01:37 31.28107 119.46302 35296 ft 459 kts 317°
2026-04-25 01:37 31.30662 119.44081 35566 ft 459 kts 317°
2026-04-25 01:37 31.33227 119.41849 35880 ft 460 kts 317°
2026-04-25 01:38 31.35825 119.39584 36130 ft 461 kts 317°
2026-04-25 01:38 31.38408 119.37332 36228 ft 463 kts 317°
2026-04-25 01:38 31.43576 119.32822 36178 ft 463 kts 317°
2026-04-25 01:39 31.48721 119.28327 36241 ft 463 kts 317°
2026-04-25 01:39 31.53893 119.23799 36404 ft 463 kts 317°
2026-04-25 01:40 31.56481 119.21536 36300 ft 462 kts 317°
2026-04-25 01:40 31.59038 119.19277 36269 ft 461 kts 317°
2026-04-25 01:40 31.64119 119.14727 36252 ft 459 kts 315°
2026-04-25 01:41 31.68974 119.09831 36248 ft 459 kts 313°
2026-04-25 01:41 31.73764 119.04919 36265 ft 459 kts 313°
2026-04-25 01:42 31.78150 118.99581 36265 ft 452 kts 304°
2026-04-25 01:42 31.81612 118.93420 36036 ft 446 kts 292°
2026-04-25 01:43 31.83584 118.86594 36395 ft 441 kts 278°
2026-04-25 01:43 31.83915 118.79493 36121 ft 436 kts 263°
2026-04-25 01:44 31.83625 118.75928 36352 ft 435 kts 263°
2026-04-25 01:44 31.83318 118.72396 36347 ft 435 kts 263°
2026-04-25 01:44 31.82689 118.65337 36255 ft 433 kts 262°
2026-04-25 01:45 31.82059 118.58321 36253 ft 434 kts 263°
2026-04-25 01:45 31.81744 118.54812 36021 ft 436 kts 263°
2026-04-25 01:45 31.81424 118.51258 36360 ft 438 kts 263°
2026-04-25 01:46 31.80777 118.44114 36370 ft 438 kts 263°
2026-04-25 01:46 31.80129 118.37006 36249 ft 437 kts 263°
2026-04-25 01:47 31.79550 118.29929 36245 ft 437 kts 265°
2026-04-25 01:47 31.79363 118.22794 36118 ft 440 kts 267°
2026-04-25 01:48 31.79292 118.19201 36388 ft 441 kts 266°
2026-04-25 01:48 31.79220 118.15614 36291 ft 439 kts 267°
2026-04-25 01:48 31.79079 118.08469 36218 ft 437 kts 267°
2026-04-25 01:49 31.78959 118.01317 36248 ft 438 kts 267°
2026-04-25 01:49 31.78844 117.94147 36263 ft 439 kts 267°
2026-04-25 01:50 31.78722 117.86982 36245 ft 440 kts 267°
2026-04-25 01:50 31.78593 117.79840 36229 ft 441 kts 267°
2026-04-25 01:51 31.78460 117.72636 36248 ft 441 kts 267°
2026-04-25 01:51 31.78319 117.65466 36204 ft 440 kts 267°
2026-04-25 01:52 31.78161 117.58321 36217 ft 441 kts 267°
2026-04-25 01:52 31.77997 117.51109 36217 ft 441 kts 267°
2026-04-25 01:53 31.77829 117.43967 36211 ft 441 kts 267°
2026-04-25 01:53 31.78182 117.36731 36240 ft 446 kts 278°
2026-04-25 01:54 31.79851 117.29710 36212 ft 449 kts 289°
2026-04-25 01:54 31.82784 117.23211 36256 ft 452 kts 301°
2026-04-25 01:55 31.86729 117.17379 36230 ft 456 kts 307°
2026-04-25 01:55 31.90848 117.11700 36266 ft 456 kts 307°
2026-04-25 01:56 31.94961 117.06020 36253 ft 455 kts 307°
2026-04-25 01:56 31.99048 117.00349 36276 ft 456 kts 307°
2026-04-25 01:57 32.05204 116.91833 36245 ft 456 kts 307°
2026-04-25 01:58 32.09297 116.86140 36249 ft 457 kts 308°
2026-04-25 01:58 32.13397 116.80442 36258 ft 456 kts 308°
2026-04-25 01:59 32.17497 116.74733 36207 ft 456 kts 307°
2026-04-25 01:59 32.21566 116.68977 36273 ft 456 kts 307°
2026-04-25 02:00 32.25589 116.63178 36226 ft 456 kts 307°
2026-04-25 02:00 32.29609 116.57379 36260 ft 456 kts 307°
2026-04-25 02:01 32.33605 116.51605 36228 ft 455 kts 307°
2026-04-25 02:01 32.37603 116.45821 36206 ft 455 kts 308°
2026-04-25 02:02 32.41607 116.40023 36248 ft 455 kts 308°
2026-04-25 02:02 32.45606 116.34221 36188 ft 455 kts 307°
2026-04-25 02:03 32.49582 116.28445 36238 ft 455 kts 307°
2026-04-25 02:03 32.53581 116.22611 36247 ft 455 kts 308°
2026-04-25 02:04 32.57587 116.16800 36180 ft 455 kts 308°
2026-04-25 02:04 32.61650 116.11103 36205 ft 455 kts 309°
2026-04-25 02:05 32.65731 116.05374 36202 ft 456 kts 309°
2026-04-25 02:05 32.69810 115.99625 36243 ft 455 kts 309°
2026-04-25 02:06 32.73893 115.93861 36219 ft 455 kts 309°
2026-04-25 02:06 32.77955 115.88106 36197 ft 455 kts 309°
2026-04-25 02:07 32.82003 115.82361 36222 ft 454 kts 309°
2026-04-25 02:07 32.86044 115.76620 36188 ft 455 kts 309°
2026-04-25 02:08 32.90134 115.70867 36205 ft 455 kts 310°
2026-04-25 02:08 32.94280 115.65229 36213 ft 454 kts 310°
2026-04-25 02:09 32.98417 115.59597 36191 ft 455 kts 310°
2026-04-25 02:09 33.02555 115.53936 36177 ft 453 kts 310°
2026-04-25 02:10 33.06702 115.48254 36203 ft 453 kts 310°
2026-04-25 02:10 33.10825 115.42589 36221 ft 454 kts 311°
2026-04-25 02:11 33.14945 115.36917 36204 ft 452 kts 311°
2026-04-25 02:11 33.19070 115.31229 36220 ft 453 kts 310°
2026-04-25 02:11 33.21127 115.28391 35938 ft 452 kts 310°
2026-04-25 02:12 33.23174 115.25558 36078 ft 453 kts 311°
2026-04-25 02:12 33.25234 115.22714 36365 ft 454 kts 310°
2026-04-25 02:12 33.27291 115.19872 36278 ft 453 kts 311°
2026-04-25 02:13 33.31411 115.14160 36039 ft 453 kts 311°
2026-04-25 02:13 33.35524 115.08459 36151 ft 454 kts 311°
2026-04-25 02:14 33.39675 115.02686 36192 ft 453 kts 311°
2026-04-25 02:14 33.43787 114.96969 36181 ft 454 kts 311°
2026-04-25 02:15 33.47885 114.91254 36199 ft 454 kts 311°
2026-04-25 02:15 33.51984 114.85525 36205 ft 453 kts 311°
2026-04-25 02:16 33.56085 114.79781 36193 ft 451 kts 311°
2026-04-25 02:16 33.60170 114.74080 36174 ft 450 kts 312°
2026-04-25 02:17 33.64373 114.68465 36177 ft 450 kts 315°
2026-04-25 02:17 33.68908 114.63299 36206 ft 449 kts 321°
2026-04-25 02:18 33.73747 114.58588 36193 ft 448 kts 322°
2026-04-25 02:18 33.78590 114.53952 36197 ft 448 kts 323°
2026-04-25 02:19 33.83465 114.49294 36191 ft 447 kts 323°
2026-04-25 02:19 33.88354 114.44700 36174 ft 446 kts 323°
2026-04-25 02:20 33.93263 114.40088 36194 ft 445 kts 323°
2026-04-25 02:20 33.98116 114.35516 36200 ft 445 kts 324°
2026-04-25 02:21 34.02981 114.30920 36186 ft 445 kts 323°
2026-04-25 02:21 34.07854 114.26310 36201 ft 445 kts 323°
2026-04-25 02:22 34.12750 114.21667 36189 ft 444 kts 323°
2026-04-25 02:22 34.17577 114.17087 36169 ft 443 kts 323°
2026-04-25 02:23 34.22429 114.12473 36198 ft 443 kts 323°
2026-04-25 02:23 34.27253 114.07878 36182 ft 443 kts 323°
2026-04-25 02:24 34.32064 114.03289 36180 ft 442 kts 324°
2026-04-25 02:24 34.36929 113.98640 36185 ft 442 kts 324°
2026-04-25 02:25 34.41714 113.94061 36193 ft 442 kts 324°
2026-04-25 02:25 34.46621 113.89601 36188 ft 440 kts 328°
2026-04-25 02:26 34.51872 113.85834 36194 ft 438 kts 334°
2026-04-25 02:26 34.57438 113.82825 36197 ft 437 kts 341°
2026-04-25 02:27 34.63241 113.80591 36191 ft 437 kts 345°
2026-04-25 02:27 34.69125 113.78635 36195 ft 435 kts 346°
2026-04-25 02:28 34.74960 113.76709 36197 ft 435 kts 346°
2026-04-25 02:28 34.80791 113.74782 36184 ft 435 kts 346°
2026-04-25 02:29 34.86624 113.72764 36169 ft 436 kts 343°
2026-04-25 02:29 34.92344 113.70315 36160 ft 436 kts 341°
2026-04-25 02:30 34.98057 113.67796 36162 ft 436 kts 341°
2026-04-25 02:30 35.03755 113.65282 36161 ft 435 kts 341°
2026-04-25 02:31 35.09455 113.62765 36144 ft 434 kts 341°
2026-04-25 02:31 35.15132 113.60252 36149 ft 435 kts 341°
2026-04-25 02:32 35.20860 113.57716 36173 ft 434 kts 341°
2026-04-25 02:32 35.26514 113.55205 36148 ft 433 kts 341°
2026-04-25 02:33 35.32175 113.52690 36171 ft 433 kts 341°
2026-04-25 02:33 35.37851 113.50162 36167 ft 432 kts 341°
2026-04-25 02:34 35.43518 113.47634 36190 ft 431 kts 341°
2026-04-25 02:34 35.49154 113.45134 36214 ft 433 kts 341°
2026-04-25 02:34 35.51873 113.43556 36229 ft 435 kts 328°
2026-04-25 02:35 35.54146 113.41095 36212 ft 441 kts 314°
2026-04-25 02:35 35.55835 113.37923 36211 ft 450 kts 299°
2026-04-25 02:35 35.56793 113.34227 36210 ft 460 kts 283°
2026-04-25 02:35 35.56897 113.30263 36254 ft 473 kts 268°
2026-04-25 02:36 35.56061 113.26299 36230 ft 485 kts 251°
2026-04-25 02:36 35.54300 113.22739 36218 ft 497 kts 233°
2026-04-25 02:36 35.51927 113.19662 36242 ft 500 kts 232°
2026-04-25 02:37 35.47988 113.12775 36175 ft 489 kts 242°
2026-04-25 02:37 35.44374 113.05710 36174 ft 489 kts 243°
2026-04-25 02:38 35.40816 112.98605 36160 ft 489 kts 244°
2026-04-25 02:38 35.37299 112.91541 36178 ft 488 kts 243°
2026-04-25 02:39 35.33756 112.84435 36206 ft 489 kts 244°
2026-04-25 02:39 35.30209 112.77332 36198 ft 489 kts 244°
2026-04-25 02:40 35.26684 112.70287 36219 ft 489 kts 243°
2026-04-25 02:40 35.23121 112.63192 36202 ft 488 kts 244°
2026-04-25 02:41 35.19579 112.56134 36201 ft 488 kts 244°
2026-04-25 02:41 35.16071 112.49057 36181 ft 487 kts 244°
2026-04-25 02:42 35.12585 112.42023 36198 ft 488 kts 244°
2026-04-25 02:42 35.09072 112.34959 36175 ft 489 kts 244°
2026-04-25 02:43 35.05539 112.27864 36149 ft 490 kts 244°
2026-04-25 02:43 35.02005 112.20787 36170 ft 490 kts 244°
2026-04-25 02:44 34.98448 112.13678 36193 ft 489 kts 244°
2026-04-25 02:44 34.94917 112.06638 36176 ft 490 kts 244°
2026-04-25 02:45 34.91387 111.99609 36166 ft 490 kts 244°
2026-04-25 02:45 34.87826 111.92540 36192 ft 489 kts 244°
2026-04-25 02:46 34.84314 111.85504 36160 ft 489 kts 245°
2026-04-25 02:46 34.80783 111.78403 36160 ft 488 kts 245°
2026-04-25 02:47 34.77265 111.71343 36172 ft 489 kts 245°
2026-04-25 02:47 34.73775 111.64360 36191 ft 488 kts 245°
2026-04-25 02:48 34.70233 111.57284 36185 ft 489 kts 245°
2026-04-25 02:48 34.66695 111.50228 36171 ft 489 kts 245°
2026-04-25 02:49 34.63176 111.43236 36204 ft 487 kts 245°
2026-04-25 02:49 34.59642 111.36217 36204 ft 487 kts 245°
2026-04-25 02:50 34.56128 111.29255 36233 ft 487 kts 244°
2026-04-25 02:50 34.52579 111.22231 36185 ft 487 kts 244°
2026-04-25 02:51 34.49042 111.15255 36287 ft 488 kts 244°
2026-04-25 02:51 34.47274 111.11770 36151 ft 487 kts 244°
2026-04-25 02:51 34.45506 111.08289 36211 ft 487 kts 244°
2026-04-25 02:52 34.41967 111.01318 36199 ft 486 kts 245°
2026-04-25 02:52 34.38451 110.94280 36177 ft 486 kts 245°
2026-04-25 02:53 34.34969 110.87313 36219 ft 485 kts 245°
2026-04-25 02:53 34.31474 110.80334 36213 ft 486 kts 245°
2026-04-25 02:54 34.27963 110.73344 36222 ft 487 kts 245°
2026-04-25 02:54 34.24455 110.66379 36259 ft 486 kts 245°
2026-04-25 02:55 34.20956 110.59443 36233 ft 485 kts 245°
2026-04-25 02:55 34.17434 110.52471 36250 ft 486 kts 245°
2026-04-25 02:56 34.13949 110.45590 36255 ft 485 kts 245°
2026-04-25 02:56 34.10438 110.38613 36231 ft 485 kts 245°
2026-04-25 02:57 34.06961 110.31683 36246 ft 485 kts 244°
2026-04-25 02:57 34.03474 110.24754 36284 ft 484 kts 245°
2026-04-25 02:58 33.99966 110.17799 36232 ft 485 kts 244°
2026-04-25 02:58 33.96482 110.10907 36240 ft 484 kts 245°
2026-04-25 02:59 33.93031 110.04001 36236 ft 480 kts 249°
2026-04-25 02:59 33.90795 109.96559 36270 ft 465 kts 265°
2026-04-25 03:00 33.90342 109.88954 36249 ft 452 kts 280°
2026-04-25 03:00 33.91508 109.81687 36238 ft 440 kts 294°
2026-04-25 03:01 33.93681 109.74808 36251 ft 440 kts 297°
2026-04-25 03:01 33.95904 109.67966 36257 ft 440 kts 297°
2026-04-25 03:02 33.98122 109.61101 36276 ft 440 kts 297°
2026-04-25 03:02 34.00339 109.54221 36226 ft 440 kts 296°
2026-04-25 03:03 34.02537 109.47360 36535 ft 439 kts 297°
2026-04-25 03:03 34.03635 109.43919 36376 ft 437 kts 297°
2026-04-25 03:03 34.04722 109.40511 36314 ft 437 kts 297°
2026-04-25 03:04 34.06907 109.33669 35932 ft 438 kts 296°
2026-04-25 03:04 34.07998 109.30250 36371 ft 439 kts 296°
2026-04-25 03:04 34.09090 109.26807 36273 ft 438 kts 297°
2026-04-25 03:05 34.12353 109.16518 36258 ft 438 kts 297°
2026-04-25 03:05 34.14525 109.09654 36235 ft 438 kts 296°
2026-04-25 03:06 34.16707 109.02735 36233 ft 439 kts 297°
2026-04-25 03:06 34.19017 108.96014 36211 ft 431 kts 304°
2026-04-25 03:07 34.22478 108.90246 36182 ft 421 kts 318°
2026-04-25 03:07 34.26997 108.85784 36210 ft 415 kts 331°
2026-04-25 03:08 34.32202 108.82878 36185 ft 412 kts 344°
2026-04-25 03:08 34.37777 108.81226 36194 ft 413 kts 347°
2026-04-25 03:09 34.43382 108.79730 36188 ft 411 kts 348°
2026-04-25 03:09 34.48956 108.78229 36206 ft 410 kts 348°
2026-04-25 03:10 34.54563 108.76683 36190 ft 410 kts 348°
2026-04-25 03:10 34.60096 108.75156 36203 ft 411 kts 347°
2026-04-25 03:11 34.65731 108.73597 36199 ft 411 kts 346°
2026-04-25 03:11 34.71164 108.71343 36200 ft 413 kts 338°
2026-04-25 03:12 34.76218 108.68031 36202 ft 415 kts 329°
2026-04-25 03:12 34.80801 108.63689 36207 ft 421 kts 321°
2026-04-25 03:13 34.84888 108.58494 36171 ft 423 kts 317°
2026-04-25 03:13 34.88811 108.53220 36240 ft 421 kts 316°
2026-04-25 03:14 34.92726 108.47926 36220 ft 421 kts 317°
2026-04-25 03:14 34.96663 108.42593 36246 ft 421 kts 316°
2026-04-25 03:15 35.00601 108.37251 36222 ft 422 kts 316°
2026-04-25 03:15 35.04496 108.31959 36240 ft 421 kts 316°
2026-04-25 03:16 35.08408 108.26633 36251 ft 421 kts 316°
2026-04-25 03:16 35.12305 108.21320 36244 ft 421 kts 316°
2026-04-25 03:17 35.16190 108.16015 36223 ft 421 kts 316°
2026-04-25 03:17 35.20097 108.10671 36214 ft 421 kts 316°
2026-04-25 03:18 35.24000 108.05323 36212 ft 420 kts 316°
2026-04-25 03:18 35.27874 108.00008 36219 ft 419 kts 315°
2026-04-25 03:19 35.31751 107.94675 36206 ft 419 kts 315°
2026-04-25 03:19 35.35637 107.89326 36225 ft 419 kts 316°
2026-04-25 03:20 35.39494 107.84042 36235 ft 418 kts 315°
2026-04-25 03:20 35.43360 107.78744 36231 ft 417 kts 317°
2026-04-25 03:21 35.47664 107.74033 36234 ft 413 kts 326°
2026-04-25 03:21 35.52522 107.70330 36254 ft 411 kts 334°
2026-04-25 03:22 35.57822 107.67694 36250 ft 410 kts 343°
2026-04-25 03:22 35.63334 107.66054 36241 ft 409 kts 347°
2026-04-25 03:23 35.68870 107.64404 36242 ft 409 kts 340°
2026-04-25 03:23 35.73878 107.61141 36238 ft 412 kts 326°
2026-04-25 03:24 35.78020 107.56240 36229 ft 419 kts 312°
2026-04-25 03:24 35.80941 107.49974 36253 ft 429 kts 297°
2026-04-25 03:25 35.82710 107.42896 36246 ft 433 kts 292°
2026-04-25 03:25 35.84329 107.35770 36253 ft 434 kts 292°
2026-04-25 03:26 35.85943 107.28607 36251 ft 434 kts 291°
2026-04-25 03:26 35.87544 107.21464 36256 ft 435 kts 291°
2026-04-25 03:27 35.89139 107.14307 36251 ft 435 kts 291°
2026-04-25 03:27 35.90708 107.07094 36239 ft 435 kts 290°
2026-04-25 03:28 35.92180 106.99909 36239 ft 435 kts 290°
2026-04-25 03:28 35.93660 106.92688 36245 ft 435 kts 290°
2026-04-25 03:29 35.95139 106.85442 36252 ft 434 kts 290°
2026-04-25 03:29 35.96612 106.78212 36262 ft 435 kts 290°
2026-04-25 03:30 35.98079 106.71002 36255 ft 435 kts 290°
2026-04-25 03:30 35.99533 106.63818 36268 ft 434 kts 290°
2026-04-25 03:31 36.00986 106.56623 36285 ft 433 kts 290°
2026-04-25 03:31 36.02437 106.49420 36301 ft 433 kts 290°
2026-04-25 03:32 36.03894 106.42149 36307 ft 432 kts 290°
2026-04-25 03:32 36.05333 106.34951 36303 ft 432 kts 289°
2026-04-25 03:33 36.06774 106.27706 36319 ft 432 kts 289°
2026-04-25 03:33 36.08215 106.20483 36344 ft 431 kts 290°
2026-04-25 03:34 36.09790 106.13377 36342 ft 429 kts 291°
2026-04-25 03:34 36.11385 106.06280 36334 ft 429 kts 291°
2026-04-25 03:35 36.12965 105.99174 36353 ft 429 kts 290°
2026-04-25 03:35 36.14529 105.92102 36340 ft 429 kts 290°
2026-04-25 03:36 36.16092 105.85000 36335 ft 429 kts 290°
2026-04-25 03:36 36.16878 105.81417 36226 ft 429 kts 290°
2026-04-25 03:36 36.17651 105.77883 35932 ft 428 kts 290°
2026-04-25 03:37 36.18428 105.74331 35629 ft 426 kts 290°
2026-04-25 03:37 36.19192 105.70832 35325 ft 423 kts 290°
2026-04-25 03:37 36.19964 105.67291 35027 ft 422 kts 290°
2026-04-25 03:37 36.20720 105.63820 34744 ft 423 kts 290°
2026-04-25 03:38 36.21488 105.60284 34438 ft 425 kts 290°
2026-04-25 03:38 36.22258 105.56741 34133 ft 427 kts 290°
2026-04-25 03:38 36.23026 105.53200 33852 ft 428 kts 290°
2026-04-25 03:38 36.23794 105.49651 33599 ft 429 kts 290°
2026-04-25 03:39 36.24555 105.46127 33329 ft 430 kts 290°
2026-04-25 03:39 36.25330 105.42535 33054 ft 431 kts 290°
2026-04-25 03:39 36.26096 105.38977 32801 ft 433 kts 290°
2026-04-25 03:39 36.26872 105.35365 32471 ft 434 kts 290°
2026-04-25 03:40 36.27650 105.31737 32046 ft 435 kts 289°
2026-04-25 03:40 36.28417 105.28151 31500 ft 436 kts 289°
2026-04-25 03:40 36.29200 105.24493 30874 ft 437 kts 289°
2026-04-25 03:40 36.29971 105.20882 30222 ft 438 kts 288°
2026-04-25 03:41 36.30745 105.17265 29550 ft 439 kts 288°
2026-04-25 03:41 36.31525 105.13627 28843 ft 440 kts 288°
2026-04-25 03:41 36.32313 105.09955 28126 ft 442 kts 288°
2026-04-25 03:41 36.33099 105.06287 27501 ft 440 kts 288°
2026-04-25 03:42 36.33870 105.02664 27034 ft 436 kts 288°
2026-04-25 03:42 36.34639 104.99051 26536 ft 433 kts 288°
2026-04-25 03:42 36.35400 104.95466 26076 ft 429 kts 287°
2026-04-25 03:42 36.36152 104.91923 25633 ft 425 kts 288°
2026-04-25 03:43 36.36892 104.88427 25207 ft 421 kts 287°
2026-04-25 03:43 36.37630 104.84940 24770 ft 417 kts 287°
2026-04-25 03:43 36.38369 104.81446 24320 ft 414 kts 287°
2026-04-25 03:43 36.39088 104.78027 23891 ft 410 kts 287°
2026-04-25 03:44 36.39799 104.74653 23469 ft 407 kts 287°
2026-04-25 03:44 36.40516 104.71239 23034 ft 404 kts 287°
2026-04-25 03:44 36.41210 104.67932 22619 ft 401 kts 287°
2026-04-25 03:44 36.41919 104.64557 22186 ft 399 kts 287°
2026-04-25 03:45 36.42613 104.61243 21766 ft 397 kts 287°
2026-04-25 03:45 36.43377 104.58002 21339 ft 393 kts 292°
2026-04-25 03:45 36.44445 104.54903 20913 ft 390 kts 298°
2026-04-25 03:45 36.45805 104.51981 20489 ft 387 kts 304°
2026-04-25 03:46 36.47361 104.49289 20067 ft 385 kts 307°
2026-04-25 03:46 36.48946 104.46662 19671 ft 383 kts 308°
2026-04-25 03:46 36.50548 104.44020 19258 ft 381 kts 307°
2026-04-25 03:46 36.52136 104.41397 18850 ft 379 kts 307°
2026-04-25 03:47 36.53707 104.38793 18445 ft 378 kts 307°
2026-04-25 03:47 36.55281 104.36181 18033 ft 377 kts 307°
2026-04-25 03:47 36.56847 104.33576 17623 ft 376 kts 306°
2026-04-25 03:47 36.58398 104.30994 17223 ft 374 kts 306°
2026-04-25 03:48 36.59943 104.28416 16817 ft 373 kts 306°
2026-04-25 03:48 36.61498 104.25822 16410 ft 371 kts 307°
2026-04-25 03:48 36.63040 104.23249 15991 ft 370 kts 307°
2026-04-25 03:48 36.64562 104.20708 15593 ft 369 kts 307°
2026-04-25 03:49 36.66093 104.18145 15175 ft 368 kts 307°
2026-04-25 03:49 36.67621 104.15589 14776 ft 367 kts 307°
2026-04-25 03:49 36.69118 104.13080 14370 ft 365 kts 306°
2026-04-25 03:49 36.70634 104.10538 13957 ft 364 kts 307°
2026-04-25 03:50 36.72137 104.08013 13537 ft 363 kts 307°
2026-04-25 03:50 36.73640 104.05485 13134 ft 361 kts 307°
2026-04-25 03:50 36.75123 104.02992 12748 ft 359 kts 307°
2026-04-25 03:50 36.76577 104.00545 12608 ft 347 kts 307°
2026-04-25 03:51 36.77939 103.98103 12473 ft 335 kts 298°
2026-04-25 03:51 36.78702 103.95449 12344 ft 325 kts 282°
2026-04-25 03:51 36.78847 103.92673 12230 ft 314 kts 269°
2026-04-25 03:51 36.78742 103.90031 12157 ft 303 kts 268°
2026-04-25 03:52 36.78622 103.87448 12068 ft 291 kts 268°
2026-04-25 03:52 36.78511 103.84963 11997 ft 280 kts 268°
2026-04-25 03:52 36.78413 103.82582 11906 ft 272 kts 268°
2026-04-25 03:52 36.78318 103.80224 11831 ft 272 kts 269°
2026-04-25 03:53 36.78227 103.77885 11719 ft 271 kts 268°
2026-04-25 03:53 36.78134 103.75532 11574 ft 271 kts 268°
2026-04-25 03:53 36.78040 103.73189 11210 ft 272 kts 268°
2026-04-25 03:53 36.77948 103.70853 10884 ft 271 kts 268°
2026-04-25 03:54 36.77853 103.68486 10564 ft 270 kts 268°
2026-04-25 03:54 36.77554 103.66206 10214 ft 270 kts 247°
2026-04-25 03:54 36.76469 103.64347 9893 ft 271 kts 218°
2026-04-25 03:54 36.74772 103.63309 9826 ft 269 kts 193°
2026-04-25 03:55 36.72966 103.63090 9810 ft 255 kts 180°
2026-04-25 03:55 36.71221 103.63217 9545 ft 248 kts 176°
2026-04-25 03:55 36.69544 103.63399 9259 ft 235 kts 176°
2026-04-25 03:55 36.67960 103.63538 8980 ft 222 kts 177°
2026-04-25 03:56 36.66454 103.63641 8705 ft 211 kts 178°
2026-04-25 03:56 36.65042 103.63725 8448 ft 198 kts 178°
2026-04-25 03:56 36.63714 103.63804 8204 ft 184 kts 178°
2026-04-25 03:56 36.62466 103.63881 7984 ft 178 kts 178°
2026-04-25 03:57 36.61228 103.63957 7771 ft 176 kts 178°
2026-04-25 03:57 36.60004 103.64034 7553 ft 174 kts 178°
2026-04-25 03:57 36.58807 103.64110 7332 ft 173 kts 178°
2026-04-25 03:57 36.57614 103.64185 7116 ft 172 kts 178°
2026-04-25 03:58 36.56407 103.64265 6886 ft 171 kts 178°
2026-04-25 03:58 36.55230 103.64327 6682 ft 169 kts 177°
2026-04-25 03:58 36.54062 103.64410 6469 ft 168 kts 178°
2026-04-25 03:58 36.52983 103.64481 6410 ft 129 kts 177°
2026-04-25 03:59 36.52300 103.64522 6410 ft 64 kts 177°
2026-04-25 03:59 36.51972 103.64535 6410 ft 33 kts 189°
2026-04-25 03:59 36.51803 103.64469 6410 ft 18 kts 203°
2026-04-25 03:59 36.51720 103.64408 6410 ft 3 kts 247°
2026-04-25 04:00 36.51735 103.64381 6410 ft 5 kts 327°
2026-04-25 04:00 36.51777 103.64362 6410 ft 7 kts 346°
2026-04-25 04:00 36.51837 103.64356 6410 ft 9 kts
2026-04-25 04:00 36.51899 103.64339 6410 ft 9 kts 327°
2026-04-25 04:01 36.51921 103.64270 6410 ft 7 kts 264°
2026-04-25 04:01 36.51920 103.64207 6410 ft 6 kts 273°
2026-04-25 04:01 36.51935 103.64171 6410 ft 2 kts 345°
2026-04-25 04:01 36.51940 103.64170 6410 ft 1 kts 353°
2026-04-25 04:02 36.51952 103.64168 6410 ft 3 kts 353°
2026-04-25 04:02 36.52017 103.64159 6410 ft 11 kts 356°
2026-04-25 04:02 36.52092 103.64154 6410 ft 10 kts 358°
2026-04-25 04:02 36.52156 103.64132 6410 ft 8 kts 316°
2026-04-25 04:03 36.52194 103.64074 6410 ft 8 kts 308°
2026-04-25 04:03 36.52232 103.64014 6410 ft 8 kts 308°
2026-04-25 04:03 36.52269 103.63954 6410 ft 8 kts 308°
2026-04-25 04:03 36.52311 103.63902 6410 ft 8 kts 326°
2026-04-25 04:04 36.52348 103.63869 6410 ft 5 kts 301°
2026-04-25 04:04 36.52358 103.63829 6410 ft 4 kts 269°
2026-04-25 04:04 36.52356 103.63794 6410 ft 3 kts 266°
2026-04-25 04:04 36.52355 103.63773 6410 ft 0 kts 264°
2026-04-25 04:05 36.52354 103.63769 6410 ft 0 kts 264°
2026-04-25 04:05 36.52354 103.63767 6410 ft 0 kts 264°